Wetbulb
74.87 75.66 75.69 73.60 72.98 71.45 71.21 70.04 68.06 70.56 69.96 70.27 70.38 69.78 69.62 69.74 69.70 69.59 69.67 69.34 68.55 69.13 69.22 68.84 68.72 69.50 67.74 67.36 67.31 66.35 64.86 63.56 60.81 61.96 63.76 64.64 64.45 64.83 65.62 66.68 66.27 65.73 64.68
74.93 75.34 74.43 72.73 69.42 71.12 65.74 68.77 69.83 68.79 69.17 69.71 69.69 69.20 69.35 69.04 69.73 69.32 68.89 68.24 68.32 68.18 68.35 68.81 68.40 68.08 68.39 68.55 67.91 66.94 66.05 66.03 62.88 61.58 64.46 63.88 64.96 65.50 65.55 65.26 65.17 65.06 64.44
74.62 73.81 73.17 71.64 69.08 68.23 69.11 67.75 68.49 68.64 67.98 68.47 68.18 68.25 67.98 68.57 69.26 69.84 68.91 68.44 68.54 68.08 68.36 68.35 68.20 68.26 68.12 67.40 66.75 65.75 65.38 65.37 64.86 61.56 61.38 63.21 63.93 64.76 64.47 65.05 64.87 64.93 64.51
74.01 73.93 73.36 72.02 70.89 69.30 66.54 66.43 65.14 65.61 66.60 67.08 66.95 67.93 68.44 69.06 69.07 69.05 68.13 68.32 68.70 68.38 68.34 68.34 68.44 67.95 67.67 67.55 66.66 66.31 65.88 64.74 64.27 61.87 61.66 61.71 62.44 64.32 63.40 61.84 61.33 62.88 62.19
74.25 73.64 72.66 72.02 71.26 69.55 68.12 66.79 65.74 64.49 65.26 65.48 65.99 67.14 67.55 66.35 67.37 67.82 68.14 68.57 69.00 68.62 68.70 68.65 68.81 68.04 65.90 65.00 64.87 65.35 65.43 64.05 62.69 61.67 61.07 61.18 61.16 61.11 60.79 61.63 60.72 61.24 62.41
74.33 73.19 73.02 71.72 69.86 69.12 68.65 68.26 66.76 64.97 66.03 66.18 65.53 66.18 66.09 66.13 63.08 62.55 66.19 68.58 69.16 68.56 67.93 68.37 68.74 65.42 64.39 62.52 62.15 62.56 63.53 63.08 62.42 62.01 61.26 60.50 61.35 61.17 61.41 60.31 59.58 58.18 56.55
73.54 73.40 72.45 71.24 69.29 69.13 68.88 67.79 66.94 64.22 64.44 66.34 66.41 66.83 66.92 68.25 61.38 60.80 63.08 67.67 68.28 68.21 68.79 67.77 67.29 65.52 63.40 64.73 62.29 60.83 60.86 60.73 61.07 62.07 59.42 60.21 60.29 60.99 60.54 59.04 58.39 57.80 56.92
73.34 72.73 72.02 70.36 69.69 69.24 69.40 67.84 67.30 67.60 63.71 65.23 66.96 66.96 67.25 68.38 60.85 59.66 61.52 66.29 67.94 65.51 66.50 66.95 65.98 65.61 64.80 62.87 62.95 62.74 63.05 62.86 62.56 61.30 61.22 60.70 60.74 60.35 59.18 58.00 57.11 56.27 57.02
72.69 72.44 71.35 70.42 69.76 68.91 68.46 66.78 66.30 66.88 66.61 67.72 66.99 66.84 68.13 68.70 58.88 58.13 61.62 66.39 66.18 65.71 66.73 65.88 64.73 64.20 59.60 57.17 61.00 60.81 61.28 61.60 59.29 56.40 55.97 55.80 55.83 56.24 56.83 56.05 54.46 54.60 54.63
72.31 72.10 71.63 70.76 69.84 68.76 66.94 66.59 67.95 68.44 67.51 66.55 67.25 67.73 65.01 68.13 60.01 56.72 61.96 66.01 65.29 63.34 66.43 64.43 57.86 59.90 54.85 54.24 60.56 60.56 59.30 59.85 58.87 58.56 58.77 58.06 58.14 58.56 57.01 57.51 56.06 53.45 53.63
72.14 72.13 70.77 70.03 69.00 66.94 67.08 67.66 68.24 67.53 66.77 65.31 66.50 67.35 68.39 66.16 65.41 56.88 55.05 65.41 63.73 63.95 63.57 62.66 62.83 54.45 52.06 50.91 51.88 59.74 57.49 55.44 56.50 56.80 56.84 57.08 57.71 58.04 58.43 59.22 59.06 56.91 54.49
70.33 69.99 69.15 69.30 68.99 67.90 66.97 67.28 67.37 67.57 67.08 65.85 65.69 65.34 66.27 66.72 56.27 56.18 54.54 54.83 59.68 63.36 62.72 62.82 60.87 51.09 49.59 50.01 53.18 50.83 50.36 50.84 55.66 55.37 55.03 54.94 55.05 55.02 56.07 56.65 57.23 58.12 58.88
68.79 67.70 68.31 69.09 69.43 69.00 68.12 67.85 67.12 67.15 64.37 64.46 63.64 61.10 63.85 64.62 64.17 51.65 50.66 51.69 53.87 60.31 61.82 56.21 50.79 48.18 48.56 51.19 50.53 49.77 48.96 54.49 54.06 52.97 52.55 52.65 53.01 53.77 55.09 55.03 55.71 58.04 58.86
68.20 67.73 68.27 68.48 67.65 67.91 67.11 66.55 64.90 63.79 63.18 63.31 63.26 63.34 64.06 63.31 61.93 61.14 59.77 58.22 52.57 55.67 53.10 58.26 54.47 53.79 50.77 52.55 52.78 53.01 54.00 53.04 51.39 51.02 50.75 51.52 52.21 52.04 51.52 52.48 52.29 55.22 54.24
67.42 67.18 67.67 67.75 66.97 61.35 57.89 60.74 64.00 64.23 60.48 63.65 63.79 64.04 63.48 62.22 61.05 55.97 55.93 59.69 59.85 54.14 55.43 58.72 58.19 57.85 57.11 56.19 54.74 53.39 52.60 51.95 50.52 50.35 49.87 49.61 49.53 49.58 49.67 50.95 52.97 54.37 52.61
65.23 65.00 64.81 64.09 62.10 60.87 59.68 55.05 43.95 44.65 43.73 43.29 46.22 57.07 57.31 47.80 42.89 42.18 42.13 40.73 41.44 43.05 54.77 56.89 56.73 56.42 54.74 53.60 52.24 51.50 51.52 49.44 49.74 49.05 48.97 48.66 47.96 47.74 48.22 50.02 53.26 53.39 52.35
65.70 65.50 63.85 62.14 61.69 61.07 60.25 60.43 58.70 48.97 42.36 41.07 41.88 43.51 46.26 44.89 41.77 41.24 40.97 40.62 40.67 43.83 54.89 55.46 54.89 54.03 52.99 51.56 50.37 49.85 48.61 48.53 48.86 48.28 47.92 47.93 47.82 47.68 47.81 49.35 51.47 50.11 51.99
65.81 55.86 64.67 63.64 61.85 59.99 60.07 60.67 60.96 60.00 58.53 55.13 43.60 45.47 41.04 40.70 40.34 40.48 41.12 45.37 52.28 50.94 55.67 54.29 52.96 51.56 50.47 50.71 50.10 48.30 47.50 47.00 47.23 47.14 47.25 47.44 47.65 47.10 47.25 48.26 50.09 48.04 49.26
63.79 63.51 64.04 64.04 63.84 60.77 58.81 60.61 60.54 59.95 58.79 56.56 53.98 48.20 45.15 40.92 40.47 40.26 41.67 55.69 54.83 53.67 52.87 51.80 51.06 50.64 50.98 50.63 48.87 46.90 45.22 45.90 45.57 46.34 46.69 46.84 47.12 46.93 47.10 47.89 49.33 47.36 48.28
64.39 58.03 59.78 63.48 61.53 61.55 60.70 60.56 59.88 58.81 57.78 56.66 55.84 56.04 54.41 50.87 53.38 54.24 54.44 53.97 53.94 53.66 52.53 51.91 51.13 51.12 50.84 49.35 46.61 45.00 45.83 47.13 46.61 46.22 46.01 46.60 46.98 47.12 46.89 47.03 48.03 49.47 49.12
64.09 63.89 58.91 63.25 62.19 61.75 61.44 60.62 59.99 59.06 58.23 57.63 57.68 56.40 49.03 56.04 55.59 54.88 54.24 54.00 53.53 52.93 52.02 51.98 51.80 51.01 49.20 47.42 46.03 47.14 47.66 46.97 46.05 45.58 45.74 46.04 46.67 46.28 47.24 47.49 47.62 48.70 49.11
62.64 62.59 62.54 62.62 62.12 60.85 60.70 60.36 60.08 59.93 59.17 58.25 58.14 54.17 43.31 55.77 55.76 54.71 53.92 53.32 53.79 53.73 53.77 52.88 50.82 49.17 47.58 46.38 46.45 47.36 47.07 46.04 45.50 45.10 45.10 45.58 46.23 46.47 46.80 47.08 47.19 47.54 47.87
61.87 61.63 61.90 62.20 62.24 57.12 59.13 60.47 59.88 59.37 58.76 58.94 58.52 56.64 54.44 54.87 52.63 53.77 53.11 53.52 53.32 52.95 52.29 50.23 48.80 47.52 46.43 45.46 46.53 46.90 46.17 45.33 44.69 44.55 44.39 45.01 45.68 45.76 46.21 46.47 46.77 46.49 46.25
62.10 61.92 61.26 60.79 60.20 60.43 60.14 59.88 59.12 53.01 58.31 58.39 57.66 56.57 54.76 53.59 55.24 54.25 53.37 53.33 53.17 52.53 50.73 49.06 48.37 46.33 44.43 43.33 44.90 45.41 46.13 45.98 45.28 45.28 44.73 44.91 45.38 45.24 46.03 46.29 46.56 46.69 46.58
61.62 61.45 60.88 60.57 59.77 59.67 58.65 58.38 57.82 58.53 58.05 57.95 57.39 57.09 57.09 56.79 55.76 53.73 53.23 52.79 52.07 50.93 49.23 47.93 47.03 44.94 42.98 41.81 41.63 41.66 37.53 31.31 38.38 34.74 45.04 45.22 45.55 46.10 45.76 45.66 46.14 46.47 46.60
59.42 59.94 59.52 59.03 58.46 58.52 58.24 57.58 57.65 57.80 57.33 57.46 57.31 56.80 56.47 56.23 56.33 55.57 53.87 52.70 51.40 50.25 49.06 47.75 46.12 44.51 42.67 42.20 42.02 36.51 29.72 29.97 37.94 30.83 42.33 45.71 45.36 45.23 45.14 44.91 45.14 45.34 45.78
MSLP
1009.06 1009.71 1010.51 1011.43 1012.36 1012.97 1013.30 1013.96 1015.31 1014.31 1015.19 1015.56 1016.06 1016.59 1016.98 1017.29 1017.56 1017.82 1018.12 1018.12 1018.13 1018.03 1018.13 1017.99 1017.87 1017.96 1017.81 1017.69 1018.00 1018.16 1018.23 1018.41 1017.79 1016.70 1016.65 1017.17 1017.19 1016.93 1016.61 1016.51 1016.48 1016.08 1015.49
1007.62 1008.86 1009.62 1010.79 1011.41 1012.09 1012.77 1013.02 1014.06 1015.76 1014.94 1015.67 1016.07 1016.51 1016.75 1017.07 1017.41 1017.63 1017.77 1017.85 1017.89 1017.53 1017.47 1017.61 1017.53 1017.51 1017.62 1017.54 1017.57 1017.62 1017.38 1017.62 1017.76 1016.89 1016.25 1016.12 1016.25 1016.19 1016.10 1015.94 1015.70 1015.32 1014.91
1007.16 1007.98 1009.04 1009.79 1010.52 1010.89 1012.06 1014.30 1015.82 1015.71 1016.67 1016.02 1016.24 1016.27 1016.41 1016.74 1016.79 1017.00 1017.12 1017.53 1017.61 1017.25 1016.99 1016.94 1016.94 1016.85 1016.90 1016.98 1016.95 1016.87 1016.86 1016.89 1016.79 1017.03 1016.17 1015.58 1015.30 1015.26 1015.02 1014.92 1014.90 1014.58 1014.33
1006.35 1007.15 1008.14 1008.67 1009.32 1010.86 1012.34 1013.10 1013.45 1016.05 1015.13 1017.30 1016.15 1015.28 1015.96 1016.23 1016.20 1016.48 1016.61 1016.93 1017.00 1016.91 1016.47 1016.46 1016.45 1016.27 1016.32 1016.25 1016.43 1016.44 1016.48 1016.40 1016.12 1016.30 1015.89 1015.06 1014.58 1014.21 1014.27 1014.21 1013.90 1013.41 1013.16
1005.60 1006.51 1007.35 1008.56 1009.56 1010.71 1011.59 1012.34 1012.89 1013.37 1012.57 1016.31 1015.19 1014.84 1014.47 1015.06 1015.70 1016.02 1016.18 1016.26 1016.31 1016.12 1015.80 1015.73 1015.68 1015.77 1015.91 1016.19 1016.26 1015.87 1015.90 1015.77 1015.47 1015.06 1015.02 1014.42 1013.76 1013.43 1013.33 1013.30 1013.05 1012.72 1012.35
1005.17 1006.06 1007.11 1008.06 1008.81 1009.56 1010.62 1011.27 1011.97 1012.85 1014.39 1014.72 1015.08 1014.93 1014.82 1014.44 1014.81 1015.43 1015.65 1015.35 1015.68 1015.41 1015.04 1014.93 1015.24 1015.79 1015.69 1015.90 1015.99 1015.85 1015.81 1015.56 1015.14 1014.86 1014.56 1014.10 1014.06 1013.72 1013.37 1012.97 1012.61 1012.16 1011.29
1004.97 1005.84 1006.67 1007.55 1008.38 1009.00 1009.78 1010.76 1011.71 1012.39 1013.14 1013.24 1013.92 1013.89 1014.05 1014.16 1014.32 1014.99 1015.26 1015.42 1015.00 1014.96 1014.59 1014.66 1014.69 1014.90 1015.37 1015.36 1015.42 1015.30 1015.28 1015.27 1015.12 1015.06 1014.83 1014.28 1014.06 1013.76 1013.66 1013.09 1012.60 1012.19 1011.58
1004.67 1005.53 1006.39 1007.12 1007.62 1008.43 1009.15 1010.00 1011.16 1011.73 1011.91 1011.62 1012.58 1013.03 1013.30 1013.39 1013.79 1014.06 1014.77 1014.75 1014.74 1014.80 1014.51 1014.40 1014.53 1014.59 1014.81 1015.08 1014.96 1014.76 1014.48 1014.40 1014.50 1014.48 1014.26 1014.04 1013.99 1013.73 1013.62 1013.08 1012.58 1012.08 1011.31
1004.41 1005.30 1006.28 1007.03 1007.63 1008.08 1008.40 1009.26 1010.41 1011.24 1011.76 1011.74 1012.18 1012.50 1013.08 1013.01 1013.50 1013.62 1013.95 1013.98 1014.21 1014.20 1014.21 1014.18 1014.31 1014.49 1014.71 1015.11 1014.89 1014.53 1014.21 1014.03 1013.89 1014.36 1014.29 1014.03 1013.82 1013.52 1013.24 1012.73 1011.82 1011.29 1010.09
1003.67 1004.26 1005.53 1006.22 1006.81 1007.54 1008.65 1009.24 1009.52 1010.22 1010.65 1011.21 1011.69 1012.22 1012.03 1012.10 1012.17 1012.39 1013.08 1013.07 1013.32 1013.58 1013.48 1013.88 1014.14 1014.29 1014.64 1014.95 1014.65 1014.37 1014.09 1013.76 1013.82 1013.59 1013.15 1012.91 1012.68 1012.20 1012.05 1011.65 1011.16 1010.70 1009.84
1003.45 1004.45 1004.90 1005.57 1006.66 1006.96 1007.84 1008.54 1008.99 1009.55 1009.98 1010.12 1010.04 1010.62 1010.84 1011.21 1011.84 1012.36 1012.77 1012.74 1012.63 1012.78 1012.96 1013.10 1013.65 1014.34 1014.46 1014.74 1014.78 1014.49 1014.13 1014.39 1013.93 1013.64 1012.76 1012.16 1011.79 1011.29 1010.72 1010.32 1010.38 1010.01 1009.35
1002.99 1003.88 1004.70 1005.20 1005.89 1006.33 1007.21 1008.10 1008.67 1009.13 1009.37 1009.37 1009.70 1010.04 1010.75 1011.04 1011.74 1012.10 1012.22 1012.46 1012.65 1012.80 1012.74 1012.96 1013.55 1014.11 1014.56 1014.86 1014.75 1014.80 1014.52 1014.45 1013.72 1013.23 1012.44 1011.79 1011.23 1010.69 1010.19 1009.98 1009.74 1009.12 1008.53
1003.44 1004.40 1004.70 1005.38 1005.79 1005.97 1006.61 1007.24 1007.97 1008.91 1009.15 1009.36 1009.31 1010.04 1010.20 1010.81 1011.29 1011.84 1012.04 1012.37 1012.84 1012.91 1012.92 1013.39 1013.86 1014.26 1014.48 1014.65 1014.71 1014.52 1014.46 1013.82 1013.39 1012.87 1012.28 1011.72 1011.24 1010.81 1010.32 1009.57 1008.90 1008.14 1007.47
1003.54 1004.50 1004.87 1005.60 1005.66 1006.14 1006.49 1007.43 1007.85 1008.45 1008.80 1009.26 1009.59 1009.82 1009.83 1010.39 1010.78 1011.48 1012.02 1012.75 1013.19 1013.26 1013.48 1013.19 1013.59 1013.77 1013.92 1014.06 1014.07 1014.06 1014.06 1013.75 1013.34 1012.67 1012.24 1011.81 1011.12 1010.38 1009.71 1009.19 1008.58 1007.79 1007.05
1004.24 1004.66 1005.05 1005.82 1006.52 1007.14 1007.97 1008.43 1008.77 1008.79 1009.15 1009.18 1009.33 1009.48 1009.80 1010.03 1010.56 1011.31 1011.92 1012.29 1012.61 1013.04 1013.06 1012.90 1013.00 1013.01 1013.18 1013.53 1013.63 1013.78 1013.80 1013.52 1013.05 1012.61 1012.08 1011.41 1010.83 1010.29 1009.56 1009.06 1008.28 1007.59 1006.87
1005.18 1005.64 1005.55 1005.93 1007.07 1007.58 1007.98 1009.22 1009.99 1010.07 1010.19 1010.19 1009.67 1009.58 1010.41 1010.54 1011.36 1012.01 1012.43 1012.79 1013.03 1013.20 1012.96 1012.50 1012.45 1012.79 1013.08 1013.29 1013.45 1013.31 1013.20 1013.40 1012.96 1012.71 1011.99 1011.43 1010.88 1010.37 1009.58 1008.85 1008.15 1007.40 1006.49
1005.31 1005.75 1006.08 1006.33 1006.91 1007.39 1007.94 1008.35 1009.21 1010.84 1010.58 1010.40 1010.10 1010.26 1010.41 1011.06 1011.67 1012.19 1012.49 1012.68 1012.96 1013.02 1012.51 1012.36 1012.42 1012.76 1012.97 1013.19 1013.23 1013.14 1012.91 1013.09 1013.37 1012.52 1011.98 1011.49 1011.02 1010.42 1009.70 1008.81 1008.07 1007.79 1006.54
1005.50 1005.84 1006.01 1006.39 1006.59 1007.32 1007.80 1008.20 1008.55 1008.90 1009.44 1010.35 1011.18 1011.06 1011.40 1011.88 1012.12 1012.17 1012.38 1012.40 1012.73 1012.75 1012.31 1012.38 1012.65 1012.90 1013.04 1013.14 1013.11 1013.12 1013.05 1013.01 1012.78 1012.53 1011.99 1011.46 1011.00 1010.48 1009.60 1008.83 1008.14 1007.95 1007.15
1005.11 1005.44 1005.84 1006.07 1006.52 1007.12 1007.96 1008.01 1008.15 1008.42 1008.93 1009.65 1010.49 1011.19 1011.63 1011.84 1012.12 1012.36 1012.34 1011.84 1011.93 1012.07 1012.21 1012.39 1012.73 1012.87 1012.86 1013.11 1013.35 1013.40 1013.32 1012.94 1013.15 1012.66 1011.96 1011.48 1011.01 1010.42 1009.52 1008.91 1008.20 1007.63 1007.14
1005.27 1005.54 1005.86 1006.16 1006.87 1007.11 1007.23 1007.43 1008.02 1008.32 1008.58 1009.07 1009.57 1010.08 1011.03 1011.66 1011.59 1011.61 1011.39 1011.62 1011.81 1011.92 1012.27 1012.38 1012.69 1012.96 1013.08 1013.35 1013.39 1013.32 1013.06 1013.02 1012.82 1012.45 1012.12 1011.71 1011.19 1010.49 1009.63 1008.92 1008.20 1007.48 1007.14
1005.57 1005.73 1005.90 1006.10 1006.33 1006.52 1006.82 1006.92 1007.43 1007.94 1008.25 1008.67 1009.09 1009.66 1010.27 1010.35 1010.34 1010.60 1010.77 1011.28 1011.59 1011.85 1012.24 1012.41 1012.70 1012.87 1013.09 1013.27 1013.33 1013.17 1013.15 1013.05 1012.97 1012.70 1012.35 1011.94 1011.39 1010.58 1009.80 1009.06 1008.29 1007.67 1007.21
1004.99 1005.44 1005.79 1006.09 1006.49 1006.60 1006.93 1007.38 1007.44 1007.52 1007.85 1008.20 1008.79 1010.05 1010.65 1009.92 1010.13 1010.25 1010.77 1011.29 1011.57 1011.89 1012.09 1012.45 1012.64 1012.83 1013.04 1013.21 1013.26 1013.24 1013.27 1013.20 1013.13 1013.00 1012.68 1012.18 1011.54 1010.79 1010.10 1009.21 1008.55 1007.92 1007.46
1005.13 1005.32 1005.84 1006.19 1006.53 1006.82 1007.10 1007.27 1007.32 1007.40 1007.65 1007.93 1008.41 1009.06 1009.74 1009.82 1010.00 1010.09 1010.72 1011.10 1011.49 1011.79 1012.14 1012.41 1012.65 1012.90 1013.22 1013.39 1013.55 1013.63 1013.56 1013.45 1013.58 1013.53 1013.02 1012.39 1011.64 1011.15 1010.45 1009.59 1008.94 1008.39 1007.95
1005.13 1005.40 1005.60 1005.93 1006.32 1006.56 1006.67 1006.87 1007.06 1007.34 1007.32 1007.73 1008.20 1008.62 1009.03 1009.29 1009.34 1009.77 1010.30 1010.78 1011.26 1011.64 1011.97 1012.24 1012.52 1012.82 1013.16 1013.42 1013.58 1013.72 1013.81 1013.86 1013.91 1013.51 1013.33 1012.61 1011.83 1011.35 1010.64 1010.06 1009.51 1009.09 1008.57
1005.28 1005.48 1005.62 1005.73 1006.13 1006.27 1006.61 1006.84 1007.07 1007.01 1007.25 1007.53 1007.75 1008.02 1008.25 1008.54 1008.94 1009.59 1010.03 1010.53 1010.98 1011.38 1011.72 1012.10 1012.41 1012.78 1013.17 1013.42 1013.49 1013.66 1014.02 1014.58 1014.46 1014.24 1013.18 1012.66 1012.14 1011.58 1011.04 1010.41 1010.10 1009.57 1009.19
1005.53 1005.71 1005.84 1005.99 1006.12 1006.35 1006.40 1006.50 1006.63 1006.83 1006.97 1007.09 1007.28 1007.55 1007.79 1008.07 1008.48 1009.03 1009.63 1010.12 1010.50 1010.93 1011.34 1011.82 1012.22 1012.62 1012.96 1013.23 1013.49 1013.90 1014.36 1014.51 1014.16 1014.24 1013.54 1012.54 1012.08 1011.59 1011.23 1010.91 1010.52 1009.97 1009.71
Wind_Speed
17 16 15 13 15 12 10 11 7 12 12 11 11 10 9 8 8 7 8 8 8 8 8 9 9 8 7 6 6 7 7 7 10 11 9 8 11 12 10 9 11 11 10
18 16 17 16 13 13 12 12 13 9 10 9 9 9 8 8 8 8 9 8 10 9 9 8 9 6 9 8 7 9 9 9 9 14 13 11 11 11 11 12 11 10 11
17 18 17 17 15 17 13 7 1 5 3 7 6 6 7 9 9 10 9 9 10 9 8 9 10 9 9 8 8 8 8 8 9 10 12 11 10 10 11 12 12 12 11
18 18 16 18 17 10 12 12 14 4 7 8 7 7 7 10 10 10 9 10 10 10 10 10 11 10 10 10 8 9 8 10 9 9 10 11 10 9 9 11 12 10 12
16 17 17 13 12 13 14 14 14 12 13 15 11 9 11 8 9 10 10 11 11 11 10 10 10 10 9 10 7 8 8 9 9 10 10 11 11 9 11 11 13 12 12
15 16 14 14 16 16 17 16 14 11 6 12 13 11 11 7 10 11 11 9 11 11 11 11 8 8 10 10 11 12 10 10 11 10 10 11 13 11 12 11 13 14 15
14 13 14 15 16 17 18 16 15 13 16 17 16 12 11 11 9 8 9 9 10 11 10 10 9 7 6 8 8 8 10 9 9 9 10 10 13 14 14 15 14 14 15
12 12 13 16 17 17 18 17 14 14 16 16 16 12 10 11 10 11 8 8 9 7 9 11 9 10 5 6 7 9 8 6 6 6 8 10 12 13 14 13 13 13 12
10 11 13 15 15 17 18 16 11 11 12 13 10 9 12 11 10 10 8 4 9 11 10 8 8 7 1 3 7 7 8 8 5 9 9 12 15 18 16 10 10 11 12
12 13 14 15 16 16 13 11 10 11 10 8 9 9 13 13 17 10 5 3 8 7 7 6 6 5 1 5 6 6 8 7 8 11 11 12 12 13 11 10 8 9 12
11 11 13 14 12 13 12 9 10 11 11 12 13 12 12 9 5 7 7 5 7 8 7 4 3 3 4 5 4 5 4 8 9 10 11 10 10 10 9 8 10 10 11
11 13 11 13 12 12 13 10 11 12 13 11 9 8 6 6 3 7 6 8 3 7 6 2 2 2 6 5 6 4 4 7 7 8 9 9 9 10 10 11 14 13 13
11 11 12 14 13 14 14 14 10 11 6 5 6 5 7 5 4 5 7 6 5 4 2 3 4 2 6 7 2 2 6 5 7 7 8 9 9 10 13 12 14 15 16
13 12 12 13 13 12 9 9 8 8 6 5 6 4 5 4 4 4 5 5 5 5 5 2 2 3 5 2 3 3 4 5 6 7 8 9 9 9 11 10 11 12 12
10 10 11 7 8 6 6 4 3 2 3 6 6 6 6 6 5 5 3 4 3 2 2 3 3 2 2 3 4 4 4 5 5 6 7 8 10 10 11 11 11 11 10
8 7 6 7 6 6 6 5 13 10 5 5 8 3 6 12 11 8 6 6 6 6 4 3 3 3 4 4 4 3 3 4 5 7 7 8 9 10 11 11 10 11 11
6 6 5 5 5 5 4 4 5 6 11 11 9 9 7 12 9 9 7 9 8 7 4 3 4 4 4 4 3 3 4 5 6 6 7 8 9 10 11 11 10 11 12
4 4 4 4 5 4 4 4 5 6 6 7 6 5 9 9 9 10 10 8 5 3 2 3 4 4 3 2 2 4 4 5 5 6 6 7 8 9 10 10 10 8 11
4 3 2 2 2 4 5 6 5 5 6 7 7 5 6 7 8 7 6 2 2 3 4 4 3 3 1 1 2 3 4 4 5 6 6 7 8 9 10 10 10 10 11
2 3 1 3 4 5 5 6 5 5 6 6 6 6 8 7 6 6 4 3 2 1 2 2 2 1 0 2 3 3 3 3 4 5 6 7 8 8 10 11 10 10 10
3 3 1 2 4 4 4 5 6 6 6 6 6 6 8 7 5 4 3 2 3 3 3 3 2 1 0 1 2 1 2 3 4 5 6 7 8 8 10 10 10 10 9
3 3 3 3 4 5 5 4 5 5 5 6 6 7 7 5 4 4 3 3 3 3 2 2 2 0 1 1 1 1 2 3 4 5 6 7 7 8 9 10 10 10 10
4 4 3 3 3 5 4 4 5 5 5 5 6 7 8 5 4 4 4 4 3 3 3 3 3 1 1 1 1 1 2 3 4 5 6 7 7 8 8 9 10 10 10
3 4 4 4 4 4 5 5 4 3 4 5 5 5 5 6 7 6 4 4 4 4 4 4 2 2 3 3 3 3 2 2 4 4 6 6 7 7 7 7 8 11 9
2 2 3 3 4 4 5 5 6 6 6 5 5 5 5 5 5 6 6 5 5 5 6 5 4 4 5 5 4 5 3 1 7 8 6 6 6 7 7 7 8 8 10
2 2 2 2 2 3 4 5 5 5 5 5 5 5 5 5 5 6 6 7 6 6 7 6 6 6 6 6 5 2 1 3 5 5 7 4 5 5 6 7 9 6 8
Wind_Direction
202 204 203 194 195 205 210 181 231 180 186 191 190 199 202 204 212 216 238 248 239 246 240 236 241 246 258 250 245 244 245 242 267 289 287 262 281 281 289 284 281 285 280
203 201 204 196 192 198 187 203 176 222 175 188 195 203 204 214 222 225 241 248 245 243 247 244 252 247 246 251 250 257 252 243 257 269 291 289 266 279 285 283 282 280 284
202 206 204 201 193 194 197 112 4 156 249 199 195 203 204 226 229 232 235 247 250 249 252 254 261 261 257 258 250 257 256 257 245 259 276 286 289 285 286 283 280 283 278
209 208 206 203 202 180 138 148 125 153 93 280 226 194 216 230 229 238 232 240 249 254 252 255 257 253 258 256 248 251 263 268 268 258 269 280 281 286 283 286 282 279 287
207 208 212 201 191 165 157 149 144 162 131 235 231 217 202 206 236 227 232 242 250 257 259 261 259 249 244 261 269 271 274 268 278 282 276 280 283 298 301 302 293 292 287
205 210 205 190 176 175 167 166 164 163 166 233 244 237 222 213 215 218 236 245 253 259 266 269 264 244 240 243 246 254 273 277 279 286 290 293 300 296 299 299 302 295 295
206 203 195 185 183 179 174 173 174 172 186 209 238 232 228 226 200 215 218 251 261 263 266 277 277 252 235 262 249 239 247 242 256 274 278 282 296 302 307 301 295 289 286
197 195 189 187 188 181 181 176 181 201 203 203 218 214 220 229 192 213 199 245 270 268 267 266 260 267 255 268 285 284 284 285 262 269 288 292 294 301 299 295 291 284 280
190 190 189 195 190 187 188 179 178 194 216 217 210 205 226 237 212 221 195 295 270 272 270 251 240 257 22 228 271 278 288 280 203 220 253 265 270 274 274 288 282 285 286
187 187 189 189 189 191 188 180 176 205 207 184 185 209 214 216 210 189 145 183 260 260 254 235 209 262 134 221 267 277 280 306 318 314 311 305 289 291 278 273 281 278 285
173 179 180 179 185 175 175 179 189 195 185 186 185 196 208 218 177 188 177 199 236 260 248 230 214 177 187 185 251 264 323 329 306 297 302 299 301 303 303 309 298 286 285
154 164 169 172 171 162 167 167 181 192 194 186 189 195 206 213 223 190 218 220 249 246 255 250 185 127 174 182 233 34 353 305 295 298 298 302 311 314 316 318 305 294 283
146 169 171 182 181 174 172 176 176 199 195 212 183 187 205 188 174 110 119 133 195 224 256 53 62 161 194 191 135 15 290 294 296 298 310 312 317 314 308 305 308 303 296
159 174 173 182 177 175 165 176 170 179 186 208 216 172 193 180 153 146 139 165 138 204 181 137 65 76 50 46 258 241 287 290 308 306 311 312 312 315 314 319 312 309 309
160 168 173 175 174 109 68 68 165 121 276 206 195 193 190 177 154 125 143 186 204 115 224 189 209 206 232 262 277 283 281 295 307 320 313 320 319 319 317 322 314 315 307
165 175 164 149 144 145 137 116 54 40 35 7 34 97 86 78 108 123 135 126 118 164 223 247 234 240 256 275 277 289 292 308 329 318 322 323 321 320 322 318 320 323 322
172 170 154 148 154 155 145 149 144 89 71 54 78 92 103 125 123 131 141 151 157 169 240 235 242 230 238 243 269 306 327 338 311 319 325 322 322 320 320 324 327 334 327
145 81 157 161 142 148 142 174 164 160 152 138 59 77 100 123 118 110 114 143 140 189 238 233 233 224 219 249 312 327 327 319 324 326 324 327 326 326 326 331 327 332 327
122 124 162 154 161 162 176 183 175 167 160 150 140 135 108 95 123 146 175 232 247 235 212 211 211 208 180 306 325 319 320 334 329 321 326 330 331 329 331 337 331 329 325
36 62 291 174 155 165 170 168 171 172 165 162 173 169 160 169 182 178 173 170 198 215 192 182 174 186 244 321 327 330 315 317 330 328 332 329 332 329 335 337 342 339 347
228 170 91 169 175 169 170 164 170 177 183 186 185 172 174 198 173 165 146 165 195 188 189 192 170 196 183 321 318 323 327 333 335 331 327 330 331 334 335 340 343 347 360
154 143 169 191 168 165 154 167 184 190 191 187 178 149 173 214 186 161 167 204 195 194 187 185 180 76 344 317 339 312 329 331 341 335 328 327 330 339 338 343 349 351 359
208 191 160 155 167 127 171 187 202 181 188 197 186 174 185 196 195 185 183 205 190 187 171 180 161 168 146 167 192 274 313 354 348 330 324 327 332 349 340 347 354 356 359
167 183 179 156 163 177 188 185 178 197 203 199 199 198 190 198 205 189 194 192 196 188 178 176 182 193 164 200 205 222 245 331 321 313 318 326 331 342 352 354 0 5 7
166 183 199 182 169 194 171 195 201 206 201 209 203 205 211 220 207 194 197 202 199 191 184 182 187 178 197 209 228 239 89 345 295 326 295 322 334 340 359 0 2 11 17
116 122 130 154 190 222 220 211 213 215 222 222 225 234 236 231 226 217 205 206 201 195 188 187 187 193 188 197 213 101 107 269 293 293 298 320 339 1 354 10 5 12 22